SCP
0 0 0 0 0 0 0 0 0 0 0 0 0 0 0 0 0 0 0 0 0 0 0 0 0 0 0 0 0 0 0 0 0 -0 -0 -0 0 0 0 0 0 0 0
0 0 0 0 0 0 0 0 0 0 0 0 0 0 0 0 0 0 0 0 0 0 0 0 0 0 0 0 0 0 0 0 0 -0 -0 -0 -0 0 0 0 0 0 0
0 0 0 0 0 0 0 0 0 0 0 0 0 0 0 0 0 0 0 0 0 0 0 0 0 0 0 0 0 0 0 0 0 -0 -0 -0 -0 -0 0 0 0 0 0
0 0 0 0 0 0 0 0 0 0 0 0 0 0 0 0 0 0 0 0 0 0 0 0 0 0 0 0 0 0 0 0 0 -0 -0 -0 -0 -0 -0 0 0 0 0
0 0 0 0 0 0 0 0 0 0 0 0 0 0 0 0 0 0 0 0 0 0 0 0 0 0 0 0 0 0 0 0 0 0 -0 -0 -0 -0 -0 0 0 0 0
0 0 0 0 0 0 0 0 0 0 0 0 0 0 0 0 0 0 0 0 0 0 0 0 0 0 0 0 0 0 0 0 0 0 0 -0 -0 -0 -0 0 0 0 0
0 0 0 0 0 0 0 0 0 0 0 0 0 0 0 0 0 0 0 0 0 0 0 0 0 0 0 0 0 0 0 0 0 0 0 -0 -0 -0 -0 -0 0 0 0
0 0 0 0 0 0 0 0 0 0 0 0 0 0 0 0 0 0 0 0 0 0 0 0 0 0 0 0 0 0 0 0 0 0 0 0 0 -0 -0 0 0 0 0
0 0 0 0 0 0 0 0 0 0 0 0 0 0 0 0 0 0 0 0 0 0 0 0 0 0 0 0 0 0 0 0 0 0 0 0 0 0 0 0 -0 -0 0
0 0 0 0 0 0 0 0 0 0 0 0 0 0 0 0 0 0 0 0 0 0 0 0 0 0 0 0 0 0 0 0 0 0 0 0 0 0 0 0 -0 -0 0
0 0 0 0 0 0 0 0 0 0 0 0 0 0 0 0 0 0 0 0 0 0 0 0 0 0 0 0 0 0 0 0 0 0 0 0 -0 -0 -0 -0 -0 -0 -0
0 0 0 0 0 0 0 0 0 0 0 0 0 0 0 0 0 0 0 0 0 0 0 0 0 0 0 0 0 0 0 0 0 0 0 0 -0 -0 -0 -0 -0 -0 -0
0 0 0 0 0 0 0 0 0 0 0 0 0 0 0 0 0 0 0 0 0 0 0 0 0 0 0 0 0 0 0 0 0 0 0 -0 -0 -0 -0 -0 -0 0 0
0 0 0 0 0 0 0 0 0 0 0 0 0 0 0 0 0 0 0 0 0 0 0 0 0 0 0 0 0 0 0 0 0 0 0 -0 -0 -0 -0 -0 -0 0 0
0 0 0 0 0 0 0 0 0 0 0 0 0 0 0 0 0 0 0 0 0 0 0 0 0 0 0 0 0 0 0 0 0 0 0 -0 0 0 0 -0 -0 -0 0
0 0 0 0 0 0 0 0 0 0 0 0 0 0 0 0 0 0 0 0 0 0 0 0 0 0 0 0 0 0 0 0 0 0 0 0 0 0 0 0 0 0 0
0 0 0 0 0 0 0 0 0 0 0 0 0 0 0 0 0 0 0 0 0 0 0 0 0 0 0 0 0 0 0 0 0 0 0 -0 0 0 0 0 0 0 0
0 0 0 0 0 0 0 0 0 0 0 0 0 0 0 0 0 0 0 0 0 0 0 0 0 0 0 0 0 0 0 0 0 0 0 -0 0 0 0 0 0 0 0
0 0 0 0 0 0 0 0 0 0 0 0 0 0 0 0 0 0 0 0 0 0 0 0 0 0 0 0 0 0 0 0 0 0 0 0 0 0 0 0 0 0 0
0 0 0 0 0 0 0 0 0 0 0 0 0 0 0 0 0 0 0 0 0 0 0 0 0 0 0 0 0 0 0 0 0 0 0 0 0 0 0 0 0 0 0
0 0 0 0 0 0 0 0 0 0 0 0 0 0 0 0 0 0 0 0 0 0 0 0 0 0 0 0 0 0 0 0 0 0 0 0 0 0 0 0 0 0 0
0 0 0 0 0 0 0 0 0 0 0 0 0 0 0 0 0 0 0 0 0 0 0 0 0 0 0 0 0 0 0 0 0 0 0 0 0 0 0 0 0 0 0
0 0 0 0 0 0 0 0 0 0 0 0 0 0 0 0 0 0 0 0 0 0 0 0 0 0 0 0 0 0 0 0 0 0 0 0 0 0 0 0 0 0 0
0 0 0 0 0 0 0 0 0 0 0 0 0 0 0 0 0 0 0 0 0 0 0 0 0 0 0 0 0 0 0 0 0 0 0 0 0 0 0 0 0 0 0
0 0 0 0 0 0 0 0 0 0 0 0 0 0 0 0 0 0 0 0 0 0 0 0 0 0 0 0 0 0 0 0 0 0 0 0 0 0 0 0 0 0 0
0 0 0 0 0 0 0 0 0 0 0 0 0 0 0 0 0 0 0 0 0 -0 -0 0 0 0 0 0 0 0 0 0 0 0 0 0 0 0 0 0 0 0 0
Wind_Speed
1 1 2 2 2 3 3 3 4 4 4 5 5 5 5 5 5 5 5 5 6 5 4 5 5 3 3 2 2 2 2 2 4 3 2 2 3 3 4 3 3 4 4
2 2 2 2 2 3 3 3 3 4 4 5 4 5 5 5 5 5 6 6 7 7 6 5 5 4 4 3 3 3 3 3 3 5 3 2 3 4 3 3 4 3 3
2 2 2 2 2 3 4 3 3 3 4 4 4 5 5 5 5 6 6 7 7 7 7 7 6 6 6 4 4 4 4 3 3 3 3 2 2 2 2 3 4 3 4
2 2 2 2 3 3 3 3 3 3 4 4 4 5 5 5 5 6 6 6 6 7 7 7 7 7 8 7 6 6 4 4 3 3 3 2 2 2 1 2 3 3 4
2 3 3 3 3 3 3 3 2 3 3 4 4 4 4 4 5 5 6 6 6 6 6 7 7 8 9 8 6 6 5 5 4 4 3 2 2 2 3 2 4 3 4
2 3 3 3 3 3 2 3 2 2 2 3 4 4 4 4 6 7 6 5 6 6 6 7 7 8 9 11 11 10 9 7 6 5 5 5 5 4 3 3 3 3 4
2 3 3 3 3 3 3 2 2 2 2 3 3 4 4 5 6 7 7 5 5 5 6 6 5 6 8 7 8 9 9 10 10 7 7 6 5 5 4 4 4 5 5
2 3 3 3 3 3 3 3 3 2 2 3 3 4 4 5 6 7 7 5 4 5 5 5 6 5 6 7 7 7 7 7 8 7 7 6 5 5 6 6 6 4 4
3 3 3 3 3 3 3 3 3 2 2 3 3 3 3 4 6 6 6 3 4 4 5 5 5 6 8 8 7 7 7 6 7 9 8 7 7 7 5 3 3 3 4
4 4 4 3 3 3 3 3 3 2 2 2 2 2 3 3 5 5 5 3 3 3 3 4 7 7 8 9 7 7 7 6 4 5 5 6 5 6 8 6 5 4 3
4 3 3 3 3 3 3 2 2 2 1 1 2 2 2 3 3 4 5 3 3 3 3 3 4 8 9 10 9 6 8 6 4 4 4 3 3 3 4 4 5 5 5
3 3 3 4 3 2 2 2 2 1 1 2 2 2 2 3 3 4 5 5 4 3 3 3 4 7 8 9 8 8 9 7 3 4 4 4 3 3 3 4 4 5 5
3 3 3 4 3 2 2 2 1 1 1 2 2 2 2 2 3 4 5 5 5 3 3 5 6 7 6 5 7 7 5 3 3 4 4 4 3 3 2 2 3 3 3
3 3 3 3 3 3 2 2 1 1 2 2 2 2 2 2 2 2 2 3 5 4 3 4 6 5 4 4 3 3 3 3 3 3 3 2 2 2 2 2 3 3 3
2 3 3 3 2 2 2 2 2 2 2 3 2 2 2 3 4 5 3 3 3 3 2 1 1 1 1 1 1 1 1 1 2 2 2 2 2 2 2 2 2 2 3
2 2 2 2 2 2 2 3 4 4 5 5 5 4 3 5 6 4 4 4 4 3 1 1 1 1 1 2 2 2 2 2 2 2 2 2 2 3 2 2 2 3 3
2 2 2 2 2 2 2 2 3 4 5 6 6 6 6 6 5 4 3 3 2 1 0 1 1 1 1 1 2 2 2 2 2 2 2 2 2 2 2 3 3 3 3
2 3 2 2 2 2 2 2 2 2 3 4 5 7 6 6 6 5 4 3 2 2 1 0 1 1 1 1 1 2 2 2 1 2 2 2 2 2 2 3 3 4 4
2 2 2 1 1 1 2 2 2 2 2 3 3 4 6 5 5 6 5 2 1 1 1 1 1 1 1 1 1 2 2 2 2 2 2 2 2 2 3 3 3 5 4
2 3 2 1 1 1 1 1 2 2 2 2 3 3 3 3 2 3 2 1 1 1 1 1 1 1 1 2 2 2 2 2 2 2 2 2 2 2 3 4 4 4 4
2 3 3 2 1 1 1 2 2 1 2 2 3 3 4 2 2 2 2 1 1 2 2 2 2 2 2 2 2 2 2 2 2 2 2 3 3 3 3 3 4 4 4
1 2 2 2 2 1 2 1 1 2 2 2 3 4 5 3 2 2 2 2 2 2 2 2 3 2 2 2 2 3 3 3 3 3 3 3 3 3 3 3 3 3 3
1 1 2 2 2 3 2 2 1 2 2 2 3 3 2 2 2 2 3 3 3 3 3 2 3 3 2 2 3 3 4 4 4 4 4 4 4 4 3 4 4 4 4
1 2 2 2 2 2 2 2 2 2 2 3 3 3 3 2 3 3 3 3 3 3 3 3 3 4 5 4 3 3 4 4 4 4 6 5 5 4 4 4 4 4 4
2 2 2 2 2 2 2 2 2 3 3 3 3 3 3 3 3 3 3 3 3 4 4 4 3 4 5 6 5 5 7 9 8 5 5 5 6 5 5 5 4 4 4
1 2 2 2 2 2 2 3 3 3 3 3 3 3 3 3 4 4 4 3 4 4 4 4 5 5 6 6 7 8 10 10 9 9 5 4 5 5 5 4 5 5 4
Wind_Direction
285 267 260 258 250 237 240 234 218 212 208 207 206 207 209 209 206 207 212 209 212 218 219 217 219 214 219 221 222 231 231 225 248 265 262 282 271 275 284 280 266 243 248
292 278 263 260 252 243 237 241 230 215 210 209 208 208 212 214 212 212 216 214 213 217 219 220 223 215 217 221 222 229 235 233 236 261 272 265 263 266 273 280 279 266 255
310 293 284 281 263 255 250 239 236 226 214 210 209 212 214 215 217 220 219 218 218 219 218 218 221 215 221 223 226 229 235 241 239 247 264 271 276 285 287 287 285 268 271
321 304 291 285 275 267 265 250 232 230 219 212 215 218 219 217 219 223 222 221 222 223 221 221 222 219 221 221 224 228 230 235 236 240 254 265 271 280 268 272 288 268 268
322 313 299 294 293 288 280 268 241 233 233 219 212 218 222 220 222 221 222 223 224 227 225 225 226 229 229 226 226 221 220 229 233 239 246 250 249 255 248 251 268 285 272
315 311 314 312 308 304 292 285 260 239 238 225 218 216 220 235 247 239 231 223 227 228 229 228 230 232 237 238 238 234 226 224 229 234 242 241 243 245 250 259 271 285 274
319 318 318 317 311 308 302 295 271 249 243 234 231 223 227 242 250 247 244 230 229 227 231 232 234 235 236 230 237 242 239 238 233 228 235 238 238 233 233 245 248 254 259
318 315 317 317 313 310 306 292 282 262 247 244 243 233 235 252 255 250 249 236 231 234 232 230 234 237 233 229 224 227 232 236 237 232 232 234 232 230 226 236 246 263 282
317 312 313 313 305 304 300 293 286 273 258 250 248 237 237 258 263 257 251 227 232 241 242 238 236 237 248 244 231 229 236 243 249 248 248 248 247 244 240 234 237 252 265
308 306 308 306 297 293 290 291 289 281 269 269 274 256 245 253 264 261 253 231 234 241 248 247 248 250 252 247 234 228 234 237 235 244 249 254 246 239 234 222 220 234 256
309 311 313 309 298 291 294 292 291 292 295 274 278 283 267 266 272 271 263 245 235 237 245 247 253 262 261 254 246 235 240 241 226 223 230 239 239 230 227 225 222 225 234
319 321 320 317 305 302 294 293 297 287 282 264 263 271 283 284 286 274 272 270 266 239 244 250 258 266 267 263 254 251 252 245 222 215 224 231 233 235 234 231 232 234 238
329 327 323 325 324 315 289 281 291 283 272 271 262 268 282 287 283 292 283 283 291 268 257 264 269 270 272 270 267 267 257 238 224 224 229 236 236 237 238 239 243 246 253
323 324 326 331 335 337 328 321 300 283 272 272 263 260 272 274 271 274 262 265 279 278 268 273 282 283 272 272 277 271 258 243 231 237 238 236 233 227 231 233 242 246 254
324 324 326 330 329 332 338 331 318 301 291 286 273 263 256 261 267 274 264 250 241 250 256 240 238 264 269 271 267 257 246 248 248 244 243 241 237 239 246 238 235 242 246
325 325 322 327 330 333 335 338 343 335 332 333 322 310 295 295 296 291 290 288 283 282 271 248 244 244 255 261 257 256 247 243 241 238 233 233 242 244 247 244 240 234 248
305 306 308 321 326 326 326 330 333 341 344 345 346 340 333 329 328 323 319 321 317 315 259 254 261 251 263 276 273 264 258 255 251 243 237 233 239 246 245 242 241 243 251
310 302 312 313 317 321 323 323 322 324 327 328 337 344 346 346 354 359 359 15 14 20 10 325 286 285 284 280 280 280 285 282 263 254 247 242 240 242 246 248 245 243 249
307 303 309 313 318 322 326 325 320 320 313 315 325 330 341 348 4 11 11 19 7 352 341 327 306 292 285 277 274 273 275 278 283 275 261 254 247 244 249 255 254 258 257
304 302 311 311 319 326 322 313 308 312 316 322 324 325 328 346 2 355 1 358 344 321 305 292 283 270 264 260 260 261 267 269 273 271 271 265 260 251 250 251 255 258 252
299 301 311 321 310 297 295 292 293 298 302 307 309 314 324 336 332 329 328 328 317 306 301 295 285 270 258 254 250 250 253 259 259 259 264 267 265 258 258 255 252 253 258
292 297 303 302 301 295 296 292 291 292 296 299 307 316 326 332 324 316 310 306 299 290 284 279 277 270 257 248 245 245 247 252 253 250 254 256 257 258 256 254 256 256 256
274 287 295 297 296 292 309 306 292 288 290 295 300 307 311 306 299 294 291 294 294 293 293 281 273 271 267 258 246 238 242 248 250 246 246 252 252 251 250 249 250 255 258
256 263 275 288 294 291 288 290 288 286 288 288 290 292 292 290 289 288 286 287 288 287 285 281 274 273 271 268 261 254 250 252 249 243 238 241 246 248 246 246 249 251 253
253 259 267 271 275 279 280 283 286 288 290 292 291 293 293 290 288 287 286 284 283 282 283 279 275 274 271 266 265 263 266 269 268 256 236 234 239 240 239 241 244 247 252
265 269 271 274 274 275 276 280 283 286 287 289 290 288 287 285 285 285 286 285 283 282 283 280 276 274 274 272 269 266 269 271 271 269 250 235 231 234 233 237 239 241 244